Time,TemperatureF,DewpointF,PressureIn,WindDirection,WindDirectionDegrees,WindSpeedMPH,WindSpeedGustMPH,Humidity,HourlyPrecipIn,Conditions,Clouds,dailyrainin,SoftwareType,DateUTC
2013-02-08 00:00:00,22.2,18.6,30.09,NNE,27,3.5,7.0,80,0.00,NA,NA,0.00,meteo_script,2013-02-08 06:00:00,
2013-02-08 00:30:00,21.9,18.1,30.10,NNE,27,2.9,4.0,79,0.00,NA,NA,0.00,meteo_script,2013-02-08 06:30:00,
2013-02-08 01:00:00,22.2,18.4,30.12,NNE,26,3.0,5.0,79,0.00,NA,NA,0.00,meteo_script,2013-02-08 07:00:00,
2013-02-08 01:30:00,22.0,18.0,30.13,NNE,26,4.7,8.0,78,0.00,NA,NA,0.00,meteo_script,2013-02-08 07:30:00,
2013-02-08 02:00:00,21.8,17.7,30.15,NNE,25,3.1,4.0,77,0.00,NA,NA,0.00,meteo_script,2013-02-08 08:00:00,
2013-02-08 02:30:00,22.0,18.0,30.15,NNE,26,4.5,8.0,78,0.00,NA,NA,0.00,meteo_script,2013-02-08 08:30:00,
2013-02-08 03:00:00,22.2,18.2,30.16,NNE,31,4.3,6.0,78,0.00,NA,NA,0.00,meteo_script,2013-02-08 09:00:00,
2013-02-08 03:30:00,22.3,18.1,30.17,NNE,26,4.4,9.0,77,0.00,NA,NA,0.00,meteo_script,2013-02-08 09:30:00,
2013-02-08 04:00:00,22.2,18.0,30.17,North,4,5.5,8.0,77,0.00,NA,NA,0.00,meteo_script,2013-02-08 10:00:00,
2013-02-08 04:30:00,22.3,18.1,30.19,North,1,3.8,7.0,77,0.00,NA,NA,0.00,meteo_script,2013-02-08 10:30:00,
2013-02-08 05:00:00,22.5,18.2,30.20,North,0,3.8,6.0,77,0.00,NA,NA,0.00,meteo_script,2013-02-08 11:00:00,
2013-02-08 05:30:00,22.6,18.3,30.22,North,7,4.8,8.0,76,0.00,NA,NA,0.00,meteo_script,2013-02-08 11:30:00,
2013-02-08 06:00:00,22.6,18.3,30.23,North,10,3.5,5.0,76,0.00,NA,NA,0.00,meteo_script,2013-02-08 12:00:00,
2013-02-08 06:30:00,22.3,17.8,30.24,North,6,3.2,4.0,76,0.00,NA,NA,0.00,meteo_script,2013-02-08 12:30:00,
2013-02-08 07:00:00,22.2,17.6,30.25,North,0,2.2,4.0,75,0.00,NA,NA,0.00,meteo_script,2013-02-08 13:00:00,
2013-02-08 07:30:00,22.0,17.1,30.28,North,0,2.1,5.0,74,0.00,NA,NA,0.00,meteo_script,2013-02-08 13:30:00,
2013-02-08 08:00:00,21.9,16.8,30.28,North,355,5.0,7.0,73,0.00,NA,NA,0.00,meteo_script,2013-02-08 14:00:00,
2013-02-08 08:30:00,22.0,16.5,30.30,North,0,3.9,8.0,71,0.00,NA,NA,0.00,meteo_script,2013-02-08 14:30:00,
2013-02-08 09:00:00,22.2,16.4,30.31,North,359,2.6,5.0,69,0.00,NA,NA,0.00,meteo_script,2013-02-08 15:00:00,
2013-02-08 09:30:00,22.1,15.9,30.31,North,2,4.8,9.0,67,0.00,NA,NA,0.00,meteo_script,2013-02-08 15:30:00,
2013-02-08 10:00:00,22.7,16.1,30.32,North,1,5.3,7.0,66,0.00,NA,NA,0.00,meteo_script,2013-02-08 16:00:00,
2013-02-08 10:30:00,23.6,16.8,30.33,North,0,1.3,3.0,66,0.00,NA,NA,0.00,meteo_script,2013-02-08 16:30:00,
2013-02-08 11:00:00,25.1,17.5,30.34,NNE,18,3.9,6.0,62,0.02,NA,NA,0.01,meteo_script,2013-02-08 17:00:00,
2013-02-08 11:30:00,25.4,17.2,30.34,NNE,29,3.9,6.0,60,0.00,NA,NA,0.01,meteo_script,2013-02-08 17:30:00,
2013-02-08 12:00:00,26.5,17.9,30.34,North,0,2.6,4.0,59,0.00,NA,NA,0.01,meteo_script,2013-02-08 18:00:00,
2013-02-08 12:30:00,27.5,18.7,30.33,North,3,4.1,6.0,58,0.00,NA,NA,0.01,meteo_script,2013-02-08 18:30:00,
2013-02-08 13:00:00,27.1,18.4,30.34,North,0,1.5,4.0,59,0.00,NA,NA,0.01,meteo_script,2013-02-08 19:00:00,
2013-02-08 13:30:00,28.6,18.9,30.33,North,0,3.2,4.0,55,0.00,NA,NA,0.01,meteo_script,2013-02-08 19:30:00,
2013-02-08 14:00:00,28.5,18.8,30.34,North,1,2.6,4.0,55,0.00,NA,NA,0.01,meteo_script,2013-02-08 20:00:00,
2013-02-08 14:30:00,28.2,18.9,30.34,North,0,2.6,4.0,57,0.00,NA,NA,0.01,meteo_script,2013-02-08 20:30:00,
2013-02-08 15:00:00,28.2,18.7,30.33,North,0,2.6,4.0,56,0.02,NA,NA,0.02,meteo_script,2013-02-08 21:00:00,
2013-02-08 15:30:00,28.6,18.7,30.34,North,355,1.2,3.0,55,0.02,NA,NA,0.03,meteo_script,2013-02-08 21:30:00,
2013-02-08 16:00:00,27.9,18.6,30.33,NNE,31,0.1,1.0,57,0.02,NA,NA,0.04,meteo_script,2013-02-08 22:00:00,
2013-02-08 16:30:00,26.3,17.4,30.34,NNE,30,0.0,1.0,58,0.02,NA,NA,0.05,meteo_script,2013-02-08 22:30:00,
2013-02-08 17:00:00,25.1,17.0,30.35,NNE,28,0.0,1.0,61,0.00,NA,NA,0.05,meteo_script,2013-02-08 23:00:00,
2013-02-08 17:30:00,23.8,16.3,30.35,North,0,0.0,0.0,63,0.00,NA,NA,0.05,meteo_script,2013-02-08 23:30:00,
2013-02-08 18:00:00,22.8,15.8,30.35,North,0,0.0,0.0,65,0.00,NA,NA,0.05,meteo_script,2013-02-09 00:00:00,
2013-02-08 18:30:00,22.1,15.7,30.35,North,0,0.0,0.0,67,0.00,NA,NA,0.05,meteo_script,2013-02-09 00:30:00,
2013-02-08 19:00:00,21.1,14.9,30.36,North,0,0.0,0.0,68,0.00,NA,NA,0.05,meteo_script,2013-02-09 01:00:00,
2013-02-08 19:30:00,20.0,14.1,30.36,North,0,0.0,0.0,68,0.00,NA,NA,0.05,meteo_script,2013-02-09 01:30:00,
2013-02-08 20:00:00,19.2,13.5,30.36,North,0,0.0,0.0,70,0.00,NA,NA,0.05,meteo_script,2013-02-09 02:00:00,
2013-02-08 20:30:00,18.6,13.0,30.36,North,0,0.0,0.0,70,0.00,NA,NA,0.05,meteo_script,2013-02-09 02:30:00,
2013-02-08 21:00:00,17.9,12.2,30.37,North,0,0.0,0.0,69,0.00,NA,NA,0.05,meteo_script,2013-02-09 03:00:00,
2013-02-08 21:30:00,17.3,12.0,30.37,North,0,0.0,0.0,71,0.00,NA,NA,0.05,meteo_script,2013-02-09 03:30:00,
2013-02-08 22:00:00,16.7,11.5,30.36,NNE,28,0.5,2.0,71,0.00,NA,NA,0.05,meteo_script,2013-02-09 04:00:00,
2013-02-08 22:30:00,16.2,11.1,30.37,North,0,0.0,0.0,71,0.00,NA,NA,0.05,meteo_script,2013-02-09 04:30:00,
2013-02-08 23:00:00,15.8,10.5,30.36,North,0,0.0,0.0,70,0.00,NA,NA,0.05,meteo_script,2013-02-09 05:00:00,
2013-02-08 23:30:00,15.6,10.6,30.35,ENE,60,0.0,1.0,72,0.00,NA,NA,0.05,meteo_script,2013-02-09 05:30:00,